User: anonymous   Login
Location: Unspecified
(0.0000°N, 0.0000°E)
Time: 12:25:26
(UTC+00:00)
Language:

HORYU 2 - Orbit

View from above orbital plane
View from above orbital plane
View from above satellite
View from above satellite

Ground track
Ground track

The orbit data is extracted from the following two-line orbital elements,

1 38340U 12025D   21015.75047222  .00000166  00000-0  32002-4 0  9990
2 38340  98.2539  80.1151 0012702  84.9669 275.2989 14.75960649455867
Epoch (UTC): 15 January 2021 18:00:40
Eccentricity: 0.0012702
inclination: 98.2539°
perigee height: 633 km
apogee height: 651 km
right ascension of ascending node: 80.1151°
argument of perigee: 84.9669°
revolutions per day: 14.75960649
mean anomaly at epoch: 275.2989°
orbit number at epoch: 45586

The dashed part of the orbit path shows where the satellite is in the earth's shadow,  

DLR